Raduga

operational
NORAD ID: 22836 Int'l Des: 1993-062 Owner: VKS Country: RU
HEOCIRCULARGSO

Radugaについて

説明を読み込み中...

リアルタイム位置

3D地球を読み込み中...

次回通過

高度履歴

Altitude vs Time

uPlot chart will show altitude changes over time

軌道要素

1 22836U 93062A 25277.72535041 -.00000106 00000-0 00000+0 0 9998
2 22836 14.1335 349.0305 0004790 295.9728 64.6721 1.00286594 43442
Epoch: Oct 4, 2025 • Age: 35 hours

現在のステータス

高度 35793.7 km
速度 3.07 km/s
衛星直下点 2.58°N, 75.22°E
打ち上げ日 Sep 30, 1993
運用期間 32 years
タイプ other

技術仕様

分類 Payload
質量 1965.00 kg
乾燥質量 1800.00 kg
総質量 1965.00 kg
長さ 5.50 m
直径 2.50 m
スパン 9.50 m
形状 Step Cyl + 2 Pan
製造者 NPOPM
バスタイプ Raduga
フェーズステータス In Orbit
所有者/国 VKS/RU

大規模コンステレーション

Loading constellations...